Date,TemperatureHighF,TemperatureAvgF,TemperatureLowF,DewpointHighF,DewpointAvgF,DewpointLowF,HumidityHigh,HumidityAvg,HumidityLow,PressureMaxIn,PressureMinIn,WindSpeedMaxMPH,WindSpeedAvgMPH,GustSpeedMaxMPH,PrecipitationSumIn
2013-1-1,19,8,-6,15,2,-10,86,80,61,30.15,29.92,16,5,16,0.00
2013-1-2,21,15,12,18,13,10,91,89,85,29.96,29.84,15,4,15,0.00
2013-1-3,20,13,10,18,8,3,88,79,66,30.14,29.95,20,8,20,0.00
2013-1-4,32,22,14,18,14,10,88,72,54,30.01,29.89,24,6,24,0.00
2013-1-5,26,17,8,15,11,5,89,78,59,29.97,29.74,14,4,14,0.00
2013-1-6,24,15,10,14,9,4,90,77,59,30.10,29.89,20,6,20,0.00
2013-1-7,38,30,19,25,22,15,81,72,58,29.91,29.78,31,10,31,0.28
2013-1-8,34,27,16,29,22,14,92,83,75,29.87,29.65,22,6,22,0.00
2013-1-9,35,31,23,27,22,19,85,71,57,30.25,29.80,22,8,22,0.00
2013-1-10,40,34,24,34,26,19,100,74,50,30.19,29.64,17,7,17,0.25
2013-1-11,41,36,34,40,36,34,100,99,95,29.64,29.28,17,6,17,0.01
2013-1-12,40,15,3,38,8,-3,95,75,63,29.96,29.29,26,6,26,0.07
2013-1-13,9,4,0,1,-2,-5,80,76,67,30.11,29.91,13,6,13,0.00
2013-1-14,14,8,5,5,2,0,85,76,62,30.27,30.11,14,5,14,0.00
2013-1-15,31,21,8,18,13,4,84,69,55,30.16,29.74,26,10,26,0.10
2013-1-16,28,25,24,25,19,16,92,78,67,29.73,29.55,26,15,26,0.11
2013-1-17,19,12,2,11,2,-5,77,64,49,30.27,30.10,13,5,13,0.00
2013-1-18,42,31,16,31,24,11,86,76,61,30.17,29.62,23,8,23,0.01
2013-1-19,40,25,2,30,18,-6,90,74,55,30.10,29.56,41,11,41,0.01
2013-1-20,9,2,-4,0,-7,-13,80,66,50,30.27,30.10,24,8,24,0.00
2013-1-21,-4,-8,-12,-10,-16,-20,77,66,57,30.22,30.13,19,8,19,0.00
2013-1-22,6,-4,-12,-2,-12,-18,77,67,58,30.26,30.11,11,4,11,0.00
2013-1-23,16,7,-5,9,-2,-18,85,65,48,30.46,30.01,25,8,25,0.00
2013-1-24,13,2,-7,4,-9,-18,66,58,48,30.53,30.05,21,8,21,0.00
2013-1-25,19,12,3,12,4,-3,82,68,53,30.18,29.83,25,10,25,0.00
2013-1-26,24,13,0,13,4,-5,85,67,52,30.22,30.00,17,7,17,0.00
2013-1-27,33,30,23,32,24,12,100,80,58,30.00,29.68,19,5,19,0.06
2013-1-28,34,32,30,34,32,30,100,99,97,29.79,29.52,15,2,15,0.17
2013-1-29,35,32,28,32,29,22,100,90,77,29.62,29.41,23,5,23,0.03
2013-1-30,28,17,8,22,10,0,80,74,68,29.64,29.51,21,12,21,0.00
2013-1-31,8,0,-9,1,-7,-17,78,71,63,30.14,29.64,22,11,22,0.00
2013-2-1,6,-3,-13,3,-10,-19,85,70,52,30.18,29.91,14,5,14,0.00
2013-2-2,13,7,1,6,1,-5,85,76,59,30.05,29.84,10,4,10,0.00
2013-2-3,14,10,4,10,4,-2,87,77,60,29.96,29.83,17,6,17,0.00
2013-2-4,17,11,4,10,3,-1,88,72,50,29.94,29.64,13,4,13,0.00
2013-2-5,29,22,11,24,17,7,94,80,61,29.96,29.54,21,8,21,0.00
2013-2-6,26,16,2,20,12,-2,88,84,77,29.99,29.81,17,5,17,0.00
2013-2-7,26,25,21,23,21,18,95,86,77,30.12,29.85,17,8,17,0.00
2013-2-8,29,24,20,21,17,12,85,75,56,30.25,30.09,17,6,17,0.00
2013-2-9,32,28,25,28,25,20,93,87,83,30.10,29.82,23,12,23,0.01
2013-2-10,34,31,28,33,29,25,100,95,88,29.82,29.16,24,8,24,0.04
2013-2-11,30,24,17,30,20,12,100,83,73,29.92,29.22,22,10,22,0.01
2013-2-12,37,25,15,26,18,10,86,75,58,29.93,29.69,17,6,17,0.06
2013-2-13,41,30,19,32,24,15,95,80,59,29.69,29.45,13,4,13,0.04
2013-2-14,33,27,14,32,20,1,100,76,37,30.06,29.46,17,5,17,0.07
2013-2-15,18,10,4,5,1,-2,81,68,47,30.17,30.04,15,7,15,0.00
2013-2-16,19,8,0,8,2,-4,86,75,57,30.13,29.98,10,4,10,0.00
2013-2-17,32,20,6,23,14,1,83,75,65,29.99,29.52,24,10,24,0.25
2013-2-18,33,23,6,30,17,1,90,79,72,29.68,29.41,21,10,21,0.00
2013-2-19,6,3,-3,1,-6,-11,80,67,56,30.23,29.68,25,12,25,0.00
2013-2-20,18,5,-8,5,-4,-13,81,67,47,30.32,30.22,11,4,11,0.00
2013-2-21,22,14,5,12,5,-1,78,68,58,30.30,29.94,21,8,21,0.00
2013-2-22,27,22,19,22,19,12,93,86,71,29.94,29.73,21,6,21,0.01
2013-2-23,28,21,15,20,17,11,90,84,72,29.85,29.73,11,4,11,0.01
2013-2-24,35,22,8,22,15,5,90,76,56,29.98,29.84,8,2,8,0.00
2013-2-25,40,28,18,26,22,15,90,78,56,29.99,29.91,9,2,9,0.00
2013-2-26,37,29,17,26,23,15,92,79,64,29.93,29.75,18,7,18,0.00
2013-2-27,38,31,28,25,24,22,83,74,57,29.91,29.74,22,10,22,0.00
2013-2-28,30,28,24,22,19,15,76,70,66,30.09,29.90,19,9,19,0.00
2013-3-1,30,24,17,17,14,11,75,66,54,30.22,30.09,19,7,19,0.00
2013-3-2,32,20,10,12,9,5,88,63,38,30.22,30.05,11,3,11,0.00
2013-3-3,34,24,13,14,10,6,74,56,39,30.05,29.85,17,7,17,0.00
2013-3-4,27,24,21,22,18,12,93,77,54,29.92,29.82,24,11,24,0.01
2013-3-5,28,25,22,23,22,16,95,88,75,30.17,29.85,14,7,14,0.00
2013-3-6,30,23,16,18,16,12,88,76,59,30.29,30.17,13,5,13,0.01
2013-3-7,33,20,7,20,14,3,89,75,57,30.26,30.16,13,4,13,0.00
2013-3-8,39,28,15,30,22,13,90,79,67,30.19,29.97,17,7,17,0.00
2013-3-9,36,35,33,36,34,28,100,95,77,29.97,29.59,18,8,18,0.46
2013-3-10,35,33,28,35,29,26,100,86,78,29.83,29.65,27,13,27,0.04
2013-3-11,29,27,22,27,21,16,96,79,68,29.74,29.63,17,9,17,0.00
2013-3-12,28,24,19,20,15,10,80,69,51,30.06,29.71,20,8,20,0.00
2013-3-13,32,22,11,18,12,8,88,69,43,30.25,30.07,11,6,11,0.00
2013-3-14,42,30,23,28,24,17,92,76,57,30.13,29.90,13,6,13,0.00
2013-3-15,34,31,25,31,28,24,95,89,80,29.90,29.69,12,2,12,0.04
2013-3-16,27,21,13,24,14,6,95,73,51,30.11,29.77,14,2,14,0.00
2013-3-17,28,18,8,21,8,-1,77,62,50,30.14,29.77,20,10,20,0.00
2013-3-18,30,21,11,29,16,4,100,81,65,29.77,29.49,27,14,27,0.00
2013-3-19,23,12,6,6,1,-3,76,61,43,30.07,29.70,22,12,22,0.00
2013-3-20,21,12,4,4,0,-4,67,57,45,30.09,29.98,24,10,24,0.00
2013-3-21,29,18,6,12,5,-1,77,59,41,30.00,29.91,9,3,9,0.00
2013-3-22,37,25,12,17,12,6,79,58,37,29.99,29.92,11,3,11,0.00
2013-3-23,40,29,18,19,16,12,81,60,38,30.04,29.95,10,4,10,0.00
2013-3-24,32,29,26,24,21,18,81,72,60,29.99,29.85,21,7,21,0.00
2013-3-25,37,30,22,19,17,15,73,59,42,30.10,29.91,20,8,21,0.00
2013-3-26,39,30,24,22,20,18,80,66,46,30.18,30.10,12,5,12,0.00
2013-3-27,45,34,22,24,19,15,85,58,34,30.23,30.18,11,3,11,0.00
2013-3-28,44,34,22,27,22,17,83,64,42,30.23,30.16,11,4,11,0.00
2013-3-29,48,37,29,35,29,23,83,72,53,30.17,29.96,14,5,14,0.00
2013-3-30,54,44,38,42,37,33,90,77,59,29.96,29.74,17,7,17,0.12
2013-4-3,46,41,35,31,26,17,68,54,41,29.92,29.61,25,13,25,0.18
2013-4-4,50,43,34,34,27,21,78,55,35,29.70,29.55,54,11,54,0.04
2013-4-5,44,34,28,32,25,16,96,71,41,29.77,29.43,23,8,23,0.07
2013-4-6,57,42,35,45,35,29,94,76,59,29.44,29.04,24,11,24,0.10
2013-4-7,49,40,0,39,34,-9,93,76,10,29.49,29.29,14,6,14,0.18
2013-4-8,46,42,39,42,40,-11,100,91,10,29.57,29.22,18,7,18,0.18
2013-4-9,41,38,31,37,33,26,96,84,61,29.68,29.49,36,13,36,0.64
2013-4-10,36,33,28,31,27,21,100,79,60,29.73,29.43,49,7,49,0.07
2013-4-11,36,32,30,33,30,23,100,91,59,29.44,29.21,28,8,28,0.39
2013-4-12,34,30,27,30,28,26,100,91,79,29.38,29.20,13,5,16,0.07
2013-4-13,37,32,28,29,26,23,94,78,60,29.50,29.37,12,4,12,0.03
2013-4-14,36,32,29,36,29,22,100,88,70,29.49,29.01,37,6,37,0.08
2013-4-15,41,36,32,34,28,21,92,73,61,29.53,29.09,26,13,27,0.03
2013-4-16,47,38,32,29,26,-6,81,65,17,29.85,29.51,14,5,14,0.00
2013-4-17,39,36,34,35,30,-14,97,80,10,29.85,29.43,24,9,24,0.46
2013-4-18,35,32,30,33,31,30,100,97,92,29.45,29.04,17,4,17,0.11
2013-4-19,37,32,29,30,24,18,100,75,50,29.53,29.02,26,6,26,0.08
2013-4-20,42,33,21,18,15,8,78,51,27,29.83,29.53,11,4,11,0.00
2013-4-21,52,41,33,48,36,-9,100,84,10,29.84,29.57,100,11,100,0.28
2013-4-22,41,36,31,38,33,-19,100,90,10,29.74,29.63,18,7,18,0.11
2013-4-23,41,33,28,31,26,18,100,78,44,29.69,29.60,58,7,58,0.12
2013-4-24,49,37,26,33,27,22,91,70,43,29.62,29.45,27,9,27,0.04
2013-4-25,53,40,32,32,29,23,90,66,35,29.75,29.53,17,7,17,0.00
2013-4-26,71,57,43,44,38,31,78,51,29,29.68,29.52,24,8,24,0.01
2013-4-27,75,62,45,48,40,33,68,48,25,29.68,29.46,25,6,25,0.00
2013-4-28,81,64,52,54,47,38,78,57,27,29.46,29.20,29,12,29,0.07
2013-4-29,75,62,51,57,49,36,89,63,40,29.37,29.11,16,6,16,0.00
2013-4-30,71,64,58,58,45,22,88,55,20,29.52,28.99,23,8,23,0.01
2013-5-1,58,40,33,41,34,-15,97,84,43,30.02,29.52,20,6,20,0.65
2013-5-2,45,38,32,33,28,-19,97,71,46,30.06,29.94,22,8,22,0.53
2013-5-3,38,34,30,32,29,24,97,85,60,29.94,29.67,21,9,21,0.12
2013-5-4,49,40,32,42,36,30,100,89,74,29.71,29.63,15,7,15,0.07
2013-5-5,65,50,38,48,41,35,91,73,50,29.72,29.62,10,5,10,0.00
2013-5-6,74,61,45,57,46,41,89,60,37,29.66,29.56,8,2,8,0.88
2013-5-7,79,67,53,52,47,38,81,51,23,29.62,29.51,14,3,14,0.00
2013-5-8,79,65,55,57,50,43,90,62,30,29.57,29.48,26,3,26,0.21
2013-5-9,59,53,44,56,48,14,92,83,52,29.63,29.50,59,8,59,0.18
2013-5-10,67,52,38,37,26,-11,71,42,14,29.65,29.43,12,5,12,0.00
2013-5-11,57,47,42,40,26,-10,68,44,25,29.72,29.42,109,13,109,0.17
2013-5-12,58,46,35,25,19,9,63,37,15,29.77,29.63,17,5,17,0.00
2013-5-13,72,57,41,47,32,19,54,39,24,29.66,29.21,28,9,28,0.00
2013-5-14,99,78,58,53,42,17,61,33,10,29.25,29.01,27,8,27,0.01
2013-5-15,71,62,56,46,45,43,63,53,37,29.45,29.23,19,7,19,0.00
2013-5-16,122,72,61,50,42,31,56,36,10,29.47,29.39,57,8,57,0.06
2013-5-17,68,57,54,56,51,33,96,81,27,29.55,29.45,21,11,21,0.32
2013-5-18,82,66,55,67,59,0,100,81,10,29.57,29.35,60,7,60,0.84
2013-5-19,82,69,62,68,64,60,100,85,57,29.37,29.11,27,7,27,1.19
2013-5-20,72,66,58,63,59,55,97,81,55,29.17,29.06,25,8,25,0.59
2013-5-21,68,59,51,60,55,51,100,87,59,29.25,29.08,17,5,17,0.01
2013-5-22,54,50,46,51,48,44,100,95,70,29.52,29.24,35,5,35,0.30
2013-5-23,63,54,45,44,35,29,83,52,29,29.89,29.53,17,6,17,0.00
2013-5-24,70,56,40,50,39,28,86,55,35,29.94,29.72,18,5,18,0.18
2013-5-25,63,55,52,50,47,42,89,75,59,29.81,29.77,22,9,22,0.04
2013-5-26,57,54,51,49,44,38,80,69,55,29.77,29.59,27,11,27,0.00
2013-5-27,70,58,52,55,49,43,97,77,39,29.94,29.42,21,10,21,3.70
2013-5-28,61,56,52,58,54,52,100,96,90,29.92,29.79,14,4,14,0.19
2013-5-29,75,64,53,71,62,53,100,93,75,29.89,29.72,17,5,17,0.29
2013-5-30,77,69,64,67,63,61,100,82,61,29.76,29.60,27,10,27,0.43
2013-5-31,79,69,62,62,57,49,92,68,36,29.65,29.59,37,10,37,0.58
2013-6-1,72,60,51,60,53,43,93,76,57,30.01,29.63,14,5,14,0.21
2013-6-2,66,56,49,44,40,37,75,58,37,30.15,30.00,16,4,16,0.00
2013-6-3,70,61,48,47,43,39,79,54,34,30.14,30.00,14,3,14,0.00
2013-6-4,64,59,54,54,50,45,91,72,55,30.16,30.07,20,7,20,0.04
2013-6-5,62,56,54,58,54,49,100,94,82,30.13,30.00,12,4,12,0.37
2013-6-6,56,53,50,54,52,47,100,95,86,30.10,30.02,8,3,8,0.00
2013-6-7,66,58,53,53,52,49,100,80,56,30.12,29.99,8,2,8,0.00
2013-6-8,73,64,54,56,53,51,92,70,48,30.00,29.96,14,4,14,0.00
2013-6-9,67,61,56,62,58,25,97,90,79,29.98,29.84,21,9,21,0.73
2013-6-10,78,66,59,64,61,58,100,85,57,29.94,29.87,9,2,9,0.00
2013-6-11,79,68,55,69,63,54,100,85,67,29.98,29.88,10,2,10,0.01
2013-6-12,72,67,63,68,64,58,100,90,66,29.96,29.85,17,4,17,0.72
2013-6-30,74,70,65,54,53,52,67,56,46,29.96,29.19,2,0,2,0.72
2013-7-19,85,81,74,71,64,57,80,58,40,29.74,29.57,14,6,14,0.00
2013-7-20,82,73,65,64,60,56,86,65,48,29.81,29.72,11,3,13,0.00
2013-7-21,134,68,-37,100,57,-38,96,71,57,29.81,29.65,8,4,8,0.44
2013-7-22,88,76,68,73,65,55,91,70,45,29.69,29.52,15,6,15,0.00
2013-7-23,78,69,61,56,54,50,82,59,41,29.87,29.69,13,4,13,0.00
2013-7-24,80,69,60,60,56,51,74,64,46,29.92,29.81,10,2,10,0.00
2013-7-25,82,73,63,68,61,50,84,67,45,29.83,29.74,12,3,12,0.00
2013-7-26,72,67,63,65,60,7,89,78,10,29.80,29.74,12,4,12,0.00